ARIANE 44LP DEB, 25541

Orbit data source: Space-Track

ARIANE 44LP DEB, 25541 is space debris in HEO originally from a launch on Sun, 11 Dec 1988 UTC launched from the French Guiana (FRGUI). Debris objects in space refer to the collection of defunct objects orbiting the Earth. Examples of debris include non-operational satellites, rocket bodies, and fragments generated from explosions, collisions, or faulty payload assembly.

Loading next visibility...
Identifier
25541, 1988-109H
Orbit
HEO
Country
Flag of FRFR
Related business
Manufacturer
Unknown
Mission
Spacecraft
Bus & Motor
Unknown
Mass
Unknown
Launch date (UTC)
1988-12-11 (37 years ago)
Launch vehicle
Unknown
Launch site
French Guiana (FRGUI)
Object type
Payload
Rocket body
Debris
Shape & HBR
Unknown
Radar Cross Section
Medium (>0.1 m² and <1 m²)

Expand to show TLE details & history
Last TLE update: 9 hours ago

TLE from 9 hours ago
0 ARIANE 44LP DEB
1 25541U 88109H   25251.22645595  .00001055  00000-0  65593-2 0  9997
2 25541   7.1569 282.0286 7078846 329.3332   3.8758  2.40289352230652
Epoch: 2025-09-08T05:26Z
TLE epoch observation values (Epoch: 2025-09-08T05:26:05.794Z)
Latitude
0.00005°
Longitude
-146.98619°
Altitude
952.152 km
Speed
9.582 km/s
True Right ascension
18h 48m 17s
True Declination
0° 00' 00"
Sunlit
Object was in daylight at epoch
Visualization orbit readout
Latitude
Unknown
Longitude
Unknown
Altitude
Unknown
Speed
Unknown
Apparent Right ascension
Unknown
Apparent Declination
Unknown
Sunlit
N/A
Visualization observer readout
Local Sidereal Time
07:03:15
Azimuth
Unknown
Elevation
Unknown
Doppler factor
Unknown
Orbital elements
Apogee altitude
33,844.133 km
Perigee altitude
501.452 km
Semi-major axis
23,550.93 km
Eccentricity
0.70788
Inclination
7.1569°
RAAN
282.0286°
Arg. of periapsis
329.3332°
True anomaly
30.80174°
Mean anomaly
3.8758°
Eccentric anomaly
12.99853°
Mean motion
0.60052 °/min
Orbital period
599.48 mins
BSTAR
0.0065593
Loading maneuver chart data...
Computing Atmospheric mass density...
Loading historical data...
Loading historical data...
Loading historical data...
Loading historical data...
Loading historical data...
Loading historical data...
Loading historical data...

Documentation

Showing up to 5 results
|